Location: Les Jeannots
(43.2262°N, 5.5774°E)
Time: 17:52:26
(UTC+00:00)

Helios 1A - Pass Details

Date: 05 July 2020
Orbit: 587 x 600 km, 98.2° (Epoch: 07 August)

Event Time Altitude Azimuth Distance (km) Brightness Sun altitude
Exits shadow 23:24:57 64° 73° (ENE) 655 3.1 -24.0°
Drops below altitude 10° 23:29:04 10° 353° (N) 1,922 6.7 -24.0°
Sets 23:31:15 0° 350° (N) 2,828 7.9 -24.1°
